Tracking 19146 objects as of 23-Apr-2018
HD Live streaming from Space Station
objects crossing your sky now

SATCOM 3R

Track SATCOM 3R now!
SATCOM 3R is classified as:


NORAD ID: 12967
Int'l Code: 1981-114A
Perigee: 35,816.7 km
Apogee: 35,866.7 km
Inclination: 15.0 °
Period: 1,438.5 minutes
Semi major axis: 42212 km
RCS: 2.5119 m2 (large)
Launch date: November 20, 1981
Source: United States (US)
Launch site: AIR FORCE EASTERN TEST RANGE (AFETR)
aabbcc
Your satellite tracking list
Your tracking list is empty




NASA's NSSDC Master Catalog

Two Line Element Set (TLE):
1 12967U 81114A   18111.63634758 -.00000327  00000-0  00000+0 0  9996
2 12967  15.0090 357.1637 0005920 290.4761 254.8701  1.00101032 98359
Source of the keplerian elements: AFSPC